This is the latest recevied weather packets stored in our database for station/object KO6LQK. If no packets are shown the sender has not sent any weather packets the latest 10 day(s).
| Time | Temp. | Humidity | Pressure | Rain* | Wind** | Luminosity | Snow |
|---|---|---|---|---|---|---|---|
| 1788297728 | 28.33° C | 14% | 1021.4 hPa | 0 mm | - | 885 W/m² | - |
| 1788297428 | 28.33° C | 14% | 1021.5 hPa | 0 mm | - | 897 W/m² | - |
| 1788297125 | 28.89° C | 13% | 1021.2 hPa | 0 mm | - | 904 W/m² | - |
| 1788296820 | 28.33° C | 13% | 1021.4 hPa | 0 mm | - | 914 W/m² | - |
| 1788296516 | 28.89° C | 13% | 1021.5 hPa | 0 mm | - | 924 W/m² | - |
| 1788296212 | 28.89° C | 13% | 1021.5 hPa | 0 mm | - | 924 W/m² | - |
| 1788295912 | 28.33° C | 13% | 1021.5 hPa | 0 mm | - | 928 W/m² | - |
| 1788295607 | 28.89° C | 13% | 1021.5 hPa | 0 mm | - | 933 W/m² | - |
| 1788295302 | 28.89° C | 13% | 1021.6 hPa | 0 mm | - | 933 W/m² | - |
| 1788295003 | 28.89° C | 13% | 1021.6 hPa | 0 mm | - | 935 W/m² | - |
| 1788294698 | 28.33° C | 13% | 1021.7 hPa | 0 mm | - | 934 W/m² | - |
| 1788294397 | 28.33° C | 13% | 1021.9 hPa | 0 mm | - | 936 W/m² | - |
| 1788294093 | 28.33° C | 13% | 1022 hPa | 0 mm | - | 936 W/m² | - |
| 1788293789 | 28.33° C | 13% | 1022 hPa | 0 mm | - | 936 W/m² | - |
| 1788293488 | 28.33° C | 12% | 1022.1 hPa | 0 mm | - | 937 W/m² | - |
| 1788293187 | 28.33° C | 13% | 1022.1 hPa | 0 mm | - | 934 W/m² | - |
| 1788292883 | 28.33° C | 14% | 1022.1 hPa | 0 mm | - | 933 W/m² | - |
| 1788292583 | 28.33° C | 14% | 1022.3 hPa | 0 mm | - | 934 W/m² | - |
| 1788292280 | 28.33° C | 14% | 1022.2 hPa | 0 mm | - | 935 W/m² | - |
| 1788291976 | 28.33° C | 14% | 1022.4 hPa | 0 mm | - | 932 W/m² | - |
| 1788291671 | 28.33° C | 14% | 1022.3 hPa | 0 mm | - | 929 W/m² | - |
| 1788291367 | 28.33° C | 14% | 1022.4 hPa | 0 mm | - | 927 W/m² | - |
| 1788291061 | 28.33° C | 14% | 1022.3 hPa | 0 mm | - | 921 W/m² | - |
| 1788290756 | 28.33° C | 14% | 1022.3 hPa | 0 mm | - | 917 W/m² | - |
| 1788290451 | 28.89° C | 13% | 1022.6 hPa | 0 mm | - | 908 W/m² | - |
* Rain latest hour (hover to see other rain measurements)
** Current wind speed in m/s (hover to see current wind gust speed)